Location: Chittendens Corners
(41.2320°N, 81.4940°W)
Time: 07:57:31
(UTC+00:00)

Okean-O - Pass Details

Date: 29 October 2020
Orbit: 638 x 641 km, 98.2° (Epoch: 26 November)

Event Time Altitude Azimuth Distance (km) Brightness Sun altitude
Rises 22:51:43 0° 127° (SE) 2,936 5.6 -5.8°
Reaches altitude 10° 22:54:26 10° 110° (ESE) 2,032 4.7 -6.3°
Maximum altitude 22:57:31 19° 65° (ENE) 1,527 4.0 -6.8°
Drops below altitude 10° 23:00:38 10° 20° (NNE) 2,041 4.9 -7.4°
Sets 23:03:22 0° 3° (N) 2,955 5.9 -7.9°
